Other Surface Observations
Issued by NWS

Current Version | Previous Version | Text Only | Print | Product List | Glossary On
Versions: 1 2 3 4 5 6 7 8 9 10 11 12 13 14 15 16 17 18 19 20 21 22 23 24 25 26 27 28 29 30 31 32 33 34 35 36 37 38 39 40 41 42 43 44 45 46 47 48 49 50
000
SXUS52 KTAE 060518
OSOTAE
OSOTAE
North Florida/South Alabama/Southwest Georgia Weather Roundup
National Weather Service Tallahassee Florida
100 AM EDT MON JUL 06 2015

Note: "fair" indicates few or no clouds below 12,000 feet with no
significant weather and/or obstructions to visibility.

!FLZ017-115-028-034-025-060600
...North Florida...

CITY           SKY/WX    TMP DP  RH WIND       PRES   REMARKS
TALLAHASSEE    MOCLDY    73  69  87 CALM      30.17R
APALACHICOLA   CLEAR     76  71  85 CALM      30.16S
PERRY          PTCLDY    72  72 100 CALM      30.17S
CROSS CITY       N/A     71  69  93 CALM      30.15F
JACKSONVILLE   CLOUDY    71  70  96 SW5       30.15F
$$

!FLZ112-006-005-002-011-060600
...Florida Panhandle...

CITY           SKY/WX    TMP DP  RH WIND       PRES   REMARKS
MARIANNA       CLEAR     72  72 100 S5        30.14S
BONIFAY        FAIR      71  70  96 CALM      30.15F
PANAMA CITY NW FAIR      73  71  93 SW5       30.14F
TYNDALL AFB    CLEAR     73  71  94 CALM      30.15F
TYND DRONE APT MOCLDY    73  72  95 CALM      30.15S
DE FUNIAK SPR  FAIR      69  68  99 CALM      30.15F
EGLIN AFB      MOCLDY    73  69  87 NE2       30.13F
DESTIN         CLEAR     76  67  73 CALM      30.13F
HURLBURT       PTCLDY    73  66  77 VRB1      30.12F
CRESTVIEW      CLEAR     68  67  96 E3        30.14F
PENSACOLA      CLEAR     69  67  93 E5        30.11F
$$

!ALZ063-066-060600
...South Alabama...

CITY           SKY/WX    TMP DP  RH WIND       PRES   REMARKS
DOTHAN         PTCLDY    71  67  87 CALM        N/A
OZARK CAIRNS   CLEAR     70  68  93 VRB1      30.13F
FT RUCKER HELI CLEAR     68  66  93 CALM      30.12F
RUCKER HELI 3  FAIR      69  66  89 SW3       30.14F
RUCKER HELI 2  FAIR      67  67 100 CALM      30.12F
FLORALA APT    CLEAR     67  66  97 CALM      30.14F
ANDALUSIA      PTCLDY    71  67  87 SE3       30.11F
TROY           PTCLDY    70  68  93 CALM      30.13F
EUFALA         FAIR      72  69  90 W3        30.12F
MOBILE         PTCLDY    68  68 100 E7        30.09F
$$

!GAZ120>161-060600
...Southwest and South Central Georgia...

CITY           SKY/WX    TMP DP  RH WIND       PRES   REMARKS
THOMASVILLE    FAIR      70  70 100 W5        30.18R
BAINBRIDGE     PTCLDY    73  72  94 S5        30.16S
MOODY AFB      PTCLDY    71  69  92 S3        30.14F
VALDOSTA       PTCLDY    70  70 100 CALM      30.15F
MOULTRIE       PTCLDY    72  70  94 CALM      30.16S
BLAKELY        PTCLDY    72  72 100 SW3       30.16S
ALBANY         CLEAR     71  69  93 SW3       30.16S
TIFTON         FAIR      71  70  97 SW6       30.15R
FITZGERALD     FAIR      73  72  95 CALM      30.16S
CORDELE        FAIR      75  73  93 SW3       30.15S
AMERICUS       MOCLDY    72  72 100 CALM      30.16S
HOMERVILLE     CLOUDY    73  73 100 SW3       30.16R
$$

!GMZ750-755-770-775-060600
...Coastal and Buoy Obs...

STATION/POSITION TIME  TEMP    WIND        PRES    VSBY  WAVE
                       AIR SEA DIR/SP/G                  HT/PER
                 (UTC) (F)     (DEG/KT/KT) (MB)    (MI)  (FT/S)
KEATON BEACH     0500   74     130/  3/  4 1021.3F
CEDAR KEY        0500   81     190/  6/  8 1021.6F
C TOWER          0500   79     160/  8/  9 1021.2F
APALACHICOLA BUO 0450   83 85  100/  4/  4 1021.3F         2/ 5
PANAMA CITY BUOY 0450   81 84  110/  6/  8 1022.0R         2/ 9
MOBILE BUOY      0450   81 84  170/  6/ 10 1020.5F         3/ 5
ORANGE BCH AL BU 0450   80 82  110/  4/  6 1018.7F         2/ 4
$$



USA.gov is the U.S. government's official web portal to all federal, state and local government web resources and services.